www.pogodaiklimat.ru

Погода и климат >> Архив погоды >> Сирия >> Аэропорт Басиля Эль-Асада


ПОГОДА в Аэропорту Басиля Эль-Асада

  • Прогноз погоды в Аэропорту Басиля Эль-Асада
  • Монитор погоды в Аэропорту Басиля Эль-Асада

АРХИВ ПОГОДЫ в Аэропорту Басиля Эль-Асада

Время (UTC), дата Ветер
(напр.,м/с)
 
Видим.   Явления Облачность Т
(С)
Тd
(С)
f
(%)
Тe
(С)
Тes
(С)
Комфортность P
(гПа)
Po
(гПа)
Тmin
(С)
Tmax
(С)
R
(мм)
R24
(мм)
S
(см)
00 18.03 Ю 4 10 км 8/8 800 м
[Cu Sc]
+15.6 +13.5 87 +15 +15 1017.4 1011.4
03 18.03 Ю 4 10 км 9/9 800 м
[Cu Sc]
+15.4 +13.6 89 +14 +14 1017.7 1011.7
06 18.03 Ю 6 10 км 9/9 800 м
[Cu Sc]
+16.2 +12.6 79 +15 +15 1019.7 1013.7 +13.8
09 18.03 ЮЗ 8 10 км 8/8 800 м
[Cu Sc]
+18.8 +12.4 66 +19 +19 1020.6 1014.6
12 18.03 ЮЗ 8 10 км 9/9 800 м
[Cu Sc]
+18.0 +13.9 77 +17 +17 1019.8 1013.8
15 18.03 ЮЗ 5 10 км 6/6 800 м
[Cu Sc]
+17.2 +13.3 78 +17 +17 1019.3 1013.3
03 19.03 В 2 10 км 1/1 900 м
[Sc diur, vesp]
+9.6 +8.0 90 +8 +8 1019.3 1013.2
06 19.03 СВ 2 10 км 1/1 900 м
[Sc diur, vesp]
+15.8 +9.7 67 +16 +21 1019.3 1013.3 +9.6
09 19.03 З 3 10 км 1/1 900 м
[Sc diur, vesp]
+18.6 +12.2 66 +19 +30 1018.6 1012.7
12 19.03 З 5 10 км 3/3 900 м
[Sc diur, vesp]
+18.4 +12.8 70 +18 +22 1017.1 1011.2
15 19.03 З 3 10 км 4/1 900 м
[Sc diur, vesp Ci sp]
+18.3 +12.6 69 +19 +19 1016.6 1010.7
18 19.03 С 2 10 км 1/1 900 м
[Sc diur, vesp]
+14.8 +12.4 86 +14 +14 1017.6 1011.6 +19.2
00 20.03 СВ 3 10 км ясно +10.4 +8.0 85 +8 +8 1017.3 1011.2
06 20.03 С 2 10 км ясно +15.8 +11.2 74 +16 +21 1017.0 1011.0 +9.6
12 20.03 З 4 10 км 8/4 900 м
[Sc Ci sp]
+23.0 +8.0 38 +24 +28 комфорт 1015.3 1009.5
15 20.03 В 3 10 км 8/0
[Ci sp]
+21.8 +8.2 42 +23 +23 комфорт 1015.0 1009.1
18 20.03 СВ 3 10 км 6/0
[Ci sp]
+15.8 +7.7 59 +15 +15 1016.0 1010.0 +23.6
21 20.03 В 3 10 км ясно +15.8 +4.6 47 +15 +15 1015.9 1009.9
00 21.03 В 2 10 км ясно +14.8 +5.5 54 +15 +15 1015.5 1009.5
03 21.03 СВ 2 10 км 6/0
[Ci sp]
+12.2 +5.8 65 +11 +11 1015.0 1008.9
06 21.03 В 2 10 км 6/0
[Ci sp]
+16.4 +10.8 69 +17 +21 1015.7 1009.7 +11.3
09 21.03 ЮЗ 2 10 км 8/0
[Ci sp]
+21.8 +7.2 39 +23 +35 комфорт 1015.7 1009.8
12 21.03 ЮЗ 4 10 км 8/3 800 м
[Cu med, cong Ci sp]
+21.6 +9.0 44 +23 +27 комфорт 1014.7 1008.8
15 21.03 Ю 2 10 км 6/3 800 м
[Cu med, cong Ci sp]
+19.8 +14.0 69 +22 +23 комфорт 1014.2 1008.3
18 21.03 В 2 10 км 3/3 800 м
[Cu med, cong]
+15.4 +12.9 85 +15 +15 1015.2 1009.2 +21.8
03 22.03 СВ 2 15 км 3/3 900 м
[Sc diur, vesp]
+10.4 +7.5 82 +9 +9 1015.5 1009.4
06 22.03 ЮВ 2 10 км 6/0
[Ac trans Ci sp]
+15.5 +10.0 70 +15 +20 1016.7 1010.7 +10.4
09 22.03 ЮЗ 4 6000 м 8/3 900 м
[Sc diur, vesp Ac trans Ci sp]
+20.0 +15.0 73 +22 +27 комфорт 1016.8 1010.9
12 22.03 ЮЗ 3 6000 м 8/5 800 м
[Cu Sc Ac trans Ci sp]
+20.2 +14.8 71 +23 +26 комфорт 1015.4 1009.5
15 22.03 ЮЗ 2 10 км 4/4 800 м
[Cu med, cong]
+18.6 +14.5 77 +20 +20 1015.0 1009.1
18 22.03 ЮВ 2 10 км ясно +15.2 +13.4 89 +15 +15 1015.5 1009.5 +20.4
00 23.03 СВ 2 10 км ясно +11.8 +10.3 91 +11 +11 1015.2 1009.1
03 23.03 СВ 2 10 км 4/0
[Ci sp]
+10.4 +9.2 92 +9 +9 1013.6 1007.5
06 23.03 С 1 10 км ясно +15.8 +11.8 77 +17 +23 1013.8 1007.8 +10.2
09 23.03 ЮЗ 2 7000 м 4/4 800 м
[Cu Sc]
+18.8 +14.0 74 +20 +29 1013.1 1007.2
15 23.03 ЮЗ 4 10 км 4/4 800 м
[Sc Ac trans]
+18.0 +12.7 71 +18 +18 1010.2 1004.3
18 23.03 10 км н/о +14.2 +12.4 89 +14 +14 1009.6 1003.6 +19.9
21 23.03 СВ 2 10 км 6/1 900 м
[Sc diur, vesp Ac trans]
+12.2 +10.3 88 +11 +11 1008.6 1002.6
00 24.03 СВ 3 10 км 8/1 900 м
[Sc diur, vesp Ac trans]
+10.8 +8.4 85 +9 +9 1006.3 1000.3
03 24.03 В 2 10 км 8/1 900 м
[Sc diur, vesp Ac trans]
+9.0 +6.9 87 +7 +7 1004.0 997.9
06 24.03 СВ 2 10 км 6/1 800 м
[Cu Sc Ac trans]
+10.8 +7.3 79 +10 +13 1003.8 997.8 +8.6
09 24.03 З 4 10 км 5/1 800 м
[Cu Sc Ac trans]
+19.1 +12.1 64 +20 +27 1002.8 997.0
12 24.03 З 5 10 км 5/5 800 м
[Cu Sc]
+20.8 +8.8 46 +22 +25 комфорт 1000.9 995.1
15 24.03 СВ 5 10 км 6/6 800 м
[Cu Sc]
+18.8 +6.4 44 +19 +19 1000.4 994.6
18 24.03 СВ 4 10 км 9/6 800 м
[Cu Sc]
+13.2 +4.4 55 +12 +12 1002.6 996.6 +21.4
21 24.03 С 3 10 км 6/6 800 м
[Cu Sc Ac trans]
+11.8 +0.9 47 +11 +11 1003.5 997.5

 

Местоположение метеостанции Аэропорт Басиля Эль-Асада (Сирия): широта 35.40 долгота 35.93 высота над уровнем моря 50 м.

В архиве по умолчанию представлена погода в Аэропорту Басиля Эль-Асада за последнюю неделю. Архивные данные за месяц целиком и за предыдущие месяцы, начиная с января 2011 года, Вы можете получить, выбрав интересующий диапазон дат из раскрывающегося списка и нажав кнопку "Ввод!".


*Определитесь, кто Вы:
робот инопланетянин человек

Внимание! Время в таблицах - всемирное. Для получения местного времени необходимо прибавить поправку, которая равна 2 ч.

Смотрите также архив погоды в соседних городах и на ближайших метеорологических станциях:

Погода в Латакии (Сирия) (20 км)
Погода в Сафире (Сирия) (67 км)
Погода в Хаме (Сирия) (81 км)
Погода в Триполи (Ливан) (107 км)
Погода в Искендеруне (Турция) (133 км)
Погода в Ризокарпасо (Кипр) (142 км)
Погода в Алеппо (Сирия) (144 км)
Погода в Эн-Набке (Сирия) (169 км)
Погода в Гиалусе (Кипр) (174 км)
Погода в Хоуч-аль-Омаре (Ливан) (176 км)

Пояснения к столбцам:

Ветер - указаны скорость ветра в м/с - средняя за 10 мин, порывы в срок и между сроками (в фигурных скобках) и направление, откуда дует ветер: С - северный, СВ - северо-восточный, В - восточный, ЮВ - юго-восточный, Ю - южный, ЮЗ - юго-западный, З - западный, СЗ - северо-западный.
Видимость - горизонтальная дальность видимости в метрах или километрах. При видимости от 1 до 10 км при отсутствии осадков обычно наблюдается дымка, при ухудшении видимости до 1 км и менее - туман. В сухую погоду видимость может ухудшаться дымом, пылью или мглою.
Явления - указаны атмосферные явления, наблюдавшиеся в срок или в последний час перед сроком; фигурными скобками обозначены явления, наблюдавшиеся между сроками (за 1-3 часа до срока); квадратными скобками обозначены град или гололедные отложения с указанием их диаметра в мм.
Облачность - указаны через наклонную черту общая и нижняя облачность в баллах и высота нижней границы облаков в метрах; квадратными скобками обозначены формы облаков: Ci - перистые, Cs - перисто-слоистые, Cc - перисто-кучевые, Ac - высококучевые, As - высокослоистые, Sc - слоисто-кучевые, Ns - слоисто-дождевые, Cu - кучевые, Cb - кучево-дождевые. Подробнее классификацию облаков см. в Атласе облаков (PDF).
T - Температура воздуха - температура, измеренная на высоте 2 м над землей.
Td - Температура точки росы - температура, при понижении до которой содержащийся в воздухе водяной пар достигнет насыщения.
f - Относительная влажность воздуха - влажноcть воздуха, измеренная на высоте 2 м над землей.
Te - Эффективная температура - температура, которую ощущает одетый по сезону человек в тени. Характеристика душности погоды. При расчете учитывается влияние влажности воздуха и скорости ветра на теплоощущения человека.
Tes - Эффективная температура на солнце - температура, которую ощущает человек, с поправкой на солнечный нагрев. Характеристика знойности погоды. Зависит от высоты солнца над горизонтом, облачности и скорости ветра. Ночью, в пасмурную погоду, а также при ветре 12 м/с и более поправка равна нулю.
P - Атмосферное давление - приведенное к уровню моря атмосферное давление.
Po - Атмосферное давление - измеренное на уровне метеостанции атмосферное давление.
Tmin - Минимальная температура - минимум температуры воздуха на высоте 2 м над землей.
Tmax - Максимальная температура - максимум температуры воздуха на высоте 2 м над землей.
R - Количество осадков - Количество выпавших осадков за период времени, мм. При наведении курсора мыши на число - период времени, за который выпало указанное количество осадков.
R24 - Количество осадков - Количество выпавших осадков за 24 часа, мм.
S - Снежный покров - Высота снежного покрова, см. При наведении курсора мыши на число - состояние снежного покрова и степень покрытия местности в баллах.